HISPASAT 30W-6

Last updated on Thu Dec 18 2025 00:02:51 GMT+0000 (Coordinated Universal Time)

1 43228U 18023A 25350.69328369 -.00000192 00000+0 00000+0 0 9995 2 43228 0.0473 43.2479 0003085 246.5024 15.4083 1.00271097 28573
UTC large
Height (km)
Speed (km/s)
/
Latitude / Longitude
Inclination (degrees)
Orbital Period (minutes)
Azimuth
Elevation
Range (km)
Doppler Factor

Next 0 passes for location: London (51.5072 / 0.1276)

Sorry there are no passes over London.